Regional Weather Roundup
Issued by NWS Bismarck, ND

Home | Current Version | Previous Version | Text Only | Print | Product List | Glossary On
Versions: 1 2 3 4 5 6 7 8 9 10 11 12 13 14 15 16 17 18 19 20 21 22 23 24 25 26 27 28 29 30 31 32 33 34 35 36 37 38 39 40 41 42 43 44 45 46 47 48 49 50
000
ASUS43 KBIS 242159
RWRBIS

NWR BROADCAST TEXT
NATIONAL WEATHER SERVICE BISMARCK ND
500 PM CDT FRI OCT 24 2014

NOTE: "FAIR" INDICATES FEW OR NO CLOUDS BELOW 12,000 FEET WITH NO
SIGNIFICANT WEATHER AND/OR OBSTRUCTIONS TO VISIBILITY.


CITY           SKY/WX    TMP DP  RH WIND       PRES   REMARKS
WILLISTON      PTSUNNY   61  26  26 W17G26    29.95R
MINOT          SUNNY     63  27  25 W26G32    29.87R
MINOT AFB      NOT AVBL
BISMARCK       PTSUNNY   66  36  32 NW16G23   29.94R
DICKINSON      NOT AVBL
GARRISON         N/A     63  30  28 W17G23    29.91R
HETTINGER ARPT PTSUNNY   62  29  28 NW20      30.02R
JAMESTOWN      MOSUNNY   67  35  30 NW20G31   29.86R
CARRINGTON     FAIR      64  32  29 W24G33    29.86R
$$

CITY           SKY/WX    TMP DP  RH WIND       PRES   REMARKS
GRAND FORKS    MOSUNNY   70  33  25 W24G33    29.76R
GRAND FORKS AF NOT AVBL
DEVILS LAKE    SUNNY     64  30  27 W24G30    29.79R
FARGO          MOSUNNY   75  41  29 W17       29.78R
GWINNER        CLEAR     75  43  31 W15G21    29.85R
$$

CITY           SKY/WX    TMP DP  RH WIND       PRES   REMARKS
ABERDEEN       SUNNY     77  35  21 NW15      29.88R
MOBRIDGE       SUNNY     74  40  29 NW16      29.91R
RAPID CITY     SUNNY     70  40  33 N10       30.03R
GLASGOW        MOSUNNY   58  29  33 W13       29.98R
SIDNEY         CLOUDY    61  27  27 W15       30.00S
WOLF POINT     CLOUDY    61  27  27 W21G26    29.99R
GLENDIVE       CLOUDY    59  28  31 NW12      30.03R
MILES CITY     CLOUDY    60  31  33 NW9       30.06R
BAKER          CLOUDY    59  31  34 NW10      30.05R
$$

CITY           SKY/WX    TMP DP  RH WIND       PRES   REMARKS
BILLINGS       CLOUDY    56  37  49 E6        30.06R
GREAT FALLS    CLOUDY    55  34  45 SW15      30.03R
$$




USA.gov is the U.S. government's official web portal to all federal, state and local government web resources and services.